Hovedside
METAR-TAF:

METAR-TAF

Lufthavner :

Sørkjosen, Norge

Sørkjosen lufthavn

breddegrad: 69-47N, lengdegrad: 020-58E, høyde over havet: 0 m

Gjeldene værobservasjon

Denne rapporten ble laget for 48 minutter siden, klokken 13:50 UTC
Vind 27 kt fra Sør-sørøst
Temperatur -6°C
Luftfuktighet 68%
Trykk 1022 hPa
Sikt 10 km eller mer
ingen skyer under 1500 m og ingen bygeskyer

METAR: ENSR 221350Z 15017KT CAVOK M06/M11 Q1022 WIND 1119FT 15027KT

Tid: 15:38 (14:38 UTC)


TAF: fraværende

Værobservasjoner og værvarsel for over 4000 flyplasser (METAR- og TAF-rapporter).

Tilgjengelige stasjoner er representert av de røde og gule prikkene på kartet.

Hold musepekeren over prikken for å se navnet på stasjonen.

Klikk så for å se værobservasjoner og -varsler.

For å forandre kartet kan du klikke på den grønne knappen med svart kryss for å zoome inn, på den grønne knappen med strek for å zoome ut, eller på de grønne pilene for å se tilstøtende kart.


METAR-TAF: